EW7507 Weather Reports


Display with metric or nautical units.
time (UTC)temp
F
wind
direction
speed
MPH
gust
MPH
rain 1hr
in
rain 24hr
in
rain mn
in
humidity
%
barometer
mb
20260505013033 56 6 9.0 16.0 0.00 0.00 0.00 23 975.4
20260505012544 56 54 6.0 15.0 0.00 0.00 0.00 22 975.3
20260505012033 56 11 6.0 16.0 0.00 0.00 0.00 22 975.2
20260505011537 56 0 10.0 16.0 0.00 0.00 0.00 22 975.4
20260505011032 56 0 7.0 16.0 0.00 0.00 0.00 22 975.2
20260505010542 56 75 3.0 19.0 0.00 0.00 0.00 22 975.2
20260505010032 56 4 7.0 21.0 0.00 0.00 0.00 22 975.2
20260505005539 56 7 13.0 21.0 0.00 0.00 0.00 21 975.2
20260505005031 56 65 12.0 24.0 0.00 0.00 0.00 21 975.2
20260505004539 57 1 11.0 24.0 0.00 0.00 0.00 21 975.4
20260505004030 57 357 12.0 21.0 0.00 0.00 0.00 21 975.3
20260505003538 57 85 4.0 11.0 0.00 0.00 0.00 24 975.2
20260505003030 57 0 7.0 17.0 0.00 0.00 0.00 21 975.3
20260505002533 58 0 6.0 17.0 0.00 0.00 0.00 21 975.4
20260505002030 58 0 7.0 17.0 0.00 0.00 0.00 21 975.3
20260505001546 59 357 12.0 19.0 0.00 0.00 0.00 20 975.3
20260505001538 58 0 8.0 19.0 0.00 0.00 0.00 21 975.2
20260505000541 59 18 8.0 17.0 0.00 0.00 0.00 20 975.3
20260505000533 59 7 9.0 15.0 0.00 0.00 0.00 20 975.2
20260504235535 60 4 11.0 17.0 0.00 0.00 0.00 19 975.2
20260504235029 60 0 9.0 19.0 0.00 0.00 0.00 20 975.1
20260504234532 59 18 10.0 19.0 0.00 0.00 0.00 19 975.1
20260504234029 59 323 6.0 21.0 0.00 0.00 0.00 19 975.1
20260504233530 60 0 11.0 27.0 0.00 0.00 0.00 18 975.2
20260504233035 60 0 15.0 23.0 0.00 0.00 0.00 18 975.1
20260504233029 60 23 14.0 27.0 0.00 0.00 0.00 19 975.1
20260504232029 60 78 13.0 21.0 0.00 0.00 0.00 18 975.0
20260504231529 60 340 10.0 24.0 0.00 0.00 0.00 19 975.2
20260504231028 60 334 11.0 24.0 0.00 0.00 0.00 20 975.1
20260504230537 60 13 10.0 22.0 0.00 0.00 0.00 19 975.0
20260504230530 60 30 11.0 22.0 0.00 0.00 0.00 19 975.1
20260504230153 61 6 12.0 19.0 0.00 0.00 0.00 19 975.1
20260504225029 61 341 7.0 23.0 0.00 0.00 0.00 20 975.1
20260504224530 61 354 10.0 23.0 0.00 0.00 0.00 19 975.0
20260504224028 60 8 10.0 20.0 0.00 0.00 0.00 20 975.0
20260504223528 60 350 9.0 20.0 0.00 0.00 0.00 20 975.0
20260504223027 61 48 11.0 19.0 0.00 0.00 0.00 19 975.1
20260504222527 61 0 12.0 22.0 0.00 0.00 0.00 21 975.1
20260504222026 61 18 14.0 22.0 0.00 0.00 0.00 21 975.2
20260504221529 60 337 12.0 19.0 0.00 0.00 0.00 22 975.0
20260504221153 60 52 9.0 19.0 0.00 0.00 0.00 21 975.1
20260504220028 60 3 11.0 19.0 0.00 0.00 0.00 21 975.1
20260504215535 60 23 12.0 19.0 0.00 0.00 0.00 21 975.2
20260504215527 60 0 10.0 19.0 0.00 0.00 0.00 22 975.0
20260504214528 60 0 10.0 16.0 0.00 0.00 0.00 23 975.3
20260504214026 59 0 9.0 19.0 0.00 0.00 0.00 23 975.2
20260504213529 58 3 8.0 21.0 0.00 0.00 0.00 23 975.4
20260504213026 59 289 6.0 21.0 0.00 0.00 0.00 23 975.5
20260504212536 58 0 4.0 19.0 0.00 0.00 0.00 23 975.5
20260504212528 59 333 10.0 17.0 0.00 0.00 0.00 23 975.6
20260504211527 59 13 9.0 20.0 0.00 0.00 0.00 21 975.6
20260504211025 59 8 15.0 20.0 0.00 0.00 0.00 24 975.7
20260504210527 59 347 9.0 19.0 0.00 0.00 0.00 25 975.5
20260504210155 59 0 6.0 17.0 0.00 0.00 0.00 29 975.5
20260504210033 59 0 11.0 19.0 0.00 0.00 0.00 27 975.6
20260504210025 59 344 9.0 19.0 0.00 0.00 0.00 26 975.5
20260504204526 59 337 6.0 17.0 0.00 0.00 0.00 27 975.5
20260504204026 59 3 9.0 16.0 0.00 0.00 0.00 29 975.7
20260504203526 59 0 9.0 19.0 0.00 0.00 0.00 28 975.8
20260504203024 59 4 9.0 20.0 0.00 0.00 0.00 29 975.8
20260504202525 59 343 11.0 21.0 0.00 0.00 0.00 29 975.8
20260504202025 58 330 13.0 21.0 0.00 0.00 0.00 29 975.8
20260504201526 58 348 13.0 21.0 0.00 0.00 0.00 29 975.8
20260504201024 58 24 10.0 21.0 0.00 0.00 0.00 29 975.9
20260504200526 58 20 11.0 21.0 0.00 0.00 0.00 29 975.8
20260504200023 58 18 10.0 19.0 0.00 0.00 0.00 29 976.0
20260504195527 58 0 11.0 21.0 0.00 0.00 0.00 30 975.8
20260504195023 57 0 9.0 21.0 0.00 0.00 0.00 31 975.9
20260504194524 56 334 10.0 21.0 0.00 0.00 0.00 31 976.0
20260504194024 56 18 12.0 21.0 0.00 0.00 0.00 31 976.2
20260504193525 56 358 11.0 19.0 0.00 0.00 0.00 31 976.0
20260504193023 56 338 12.0 19.0 0.00 0.00 0.00 30 976.2
20260504192525 56 0 11.0 17.0 0.00 0.00 0.00 32 976.1
20260504192024 55 0 10.0 20.0 0.00 0.00 0.00 34 976.2
20260504191523 55 334 13.0 20.0 0.00 0.00 0.00 33 976.3
20260504191030 54 0 6.0 18.0 0.00 0.00 0.00 37 976.3
20260504191022 55 6 8.0 18.0 0.00 0.00 0.00 35 976.3
20260504190030 54 0 7.0 16.0 0.00 0.00 0.00 38 976.5
20260504190022 54 25 9.0 16.0 0.00 0.00 0.00 35 976.5
20260504185021 54 354 5.0 17.0 0.00 0.00 0.00 36 976.6
20260504184526 54 354 9.0 18.0 0.00 0.00 0.00 35 976.7
20260504184022 54 348 12.0 20.0 0.00 0.00 0.00 35 976.6
20260504183521 54 0 11.0 20.0 0.00 0.00 0.00 35 976.6
20260504183021 53 0 7.0 19.0 0.00 0.00 0.00 37 976.5
20260504182530 53 23 8.0 18.0 0.00 0.00 0.00 36 976.7
20260504182521 53 0 11.0 19.0 0.00 0.00 0.00 35 976.6
20260504181529 53 340 11.0 19.0 0.00 0.00 0.00 35 976.6
20260504181521 53 347 9.0 19.0 0.00 0.00 0.00 36 976.6
20260504180523 53 337 10.0 20.0 0.00 0.00 0.00 35 976.7
20260504180031 54 0 11.0 17.0 0.00 0.00 0.00 34 976.6
20260504180023 54 324 10.0 20.0 0.00 0.00 0.00 35 976.6
20260504175020 54 338 9.0 18.0 0.00 0.00 0.00 34 976.5
20260504174522 54 348 8.0 18.0 0.00 0.00 0.00 36 976.4
20260504174020 53 348 8.0 14.0 0.00 0.00 0.00 36 976.5
20260504173529 53 344 7.0 13.0 0.00 0.00 0.00 38 976.7
20260504173521 53 336 9.0 13.0 0.00 0.00 0.00 36 976.5
20260504172524 53 0 8.0 15.0 0.00 0.00 0.00 37 976.5
20260504172021 52 0 7.0 15.0 0.00 0.00 0.00 37 976.5
20260504171523 52 18 5.0 15.0 0.00 0.00 0.00 39 976.5
20260504171020 52 0 10.0 15.0 0.00 0.00 0.00 38 976.6
20260504170522 52 358 9.0 15.0 0.00 0.00 0.00 39 976.5
20260504151017 50 30 4.0 12.0 0.00 0.00 0.00 44 976.2
20260504150519 50 21 7.0 12.0 0.00 0.00 0.00 44 976.2
20260504141015 49 235 2.0 4.0 0.00 0.00 0.00 71 975.7
20260504140519 49 235 2.0 3.0 0.00 0.00 0.00 72 975.8
20260504130520 47 235 0.0 1.0 0.00 0.00 0.00 72 975.6
20260504110512 48 319 0.0 0.0 0.00 0.00 0.00 71 975.6
20260504100511 49 18 0.0 3.0 0.00 0.00 0.00 66 975.7
20260504082007 51 1 4.0 11.0 0.00 0.00 0.00 54 975.7
20260504081508 52 340 5.0 11.0 0.00 0.00 0.00 53 975.7
20260504081007 52 75 5.0 13.0 0.00 0.00 0.00 53 975.6
20260504080508 52 30 6.0 13.0 0.00 0.00 0.00 52 975.7
20260504050503 56 56 4.0 7.0 0.00 0.00 0.00 40 973.1
20260504050002 56 66 4.0 10.0 0.00 0.00 0.00 40 973.0
20260504045504 56 66 5.0 10.0 0.00 0.00 0.00 40 972.9
20260504045001 56 62 2.0 10.0 0.00 0.00 0.00 41 972.9
20260504044510 56 71 4.0 9.0 0.00 0.00 0.00 40 972.5
20260504044504 56 68 4.0 10.0 0.00 0.00 0.00 40 972.5
20260504044125 56 80 4.0 12.0 0.00 0.00 0.00 39 972.4
20260504043000 56 61 6.0 12.0 0.00 0.00 0.00 39 972.3
20260504042502 56 71 4.0 10.0 0.00 0.00 0.00 39 972.0
20260504042002 56 51 4.0 15.0 0.00 0.00 0.00 39 972.1
20260504041502 57 86 6.0 17.0 0.00 0.00 0.00 38 972.0
20260504041001 57 28 7.0 17.0 0.00 0.00 0.00 38 971.9
20260504040509 58 65 5.0 14.0 0.00 0.00 0.00 38 971.6
20260504040501 57 42 8.0 17.0 0.00 0.00 0.00 37 971.7
20260504035502 58 58 4.0 15.0 0.00 0.00 0.00 38 971.4
20260504034959 58 61 6.0 15.0 0.00 0.00 0.00 36 971.4
20260504034501 59 58 5.0 14.0 0.00 0.00 0.00 36 971.3
20260504034127 60 59 6.0 20.0 0.00 0.00 0.00 34 970.8
20260504034008 60 45 6.0 18.0 0.00 0.00 0.00 35 971.0
20260504034001 59 61 6.0 12.0 0.00 0.00 0.00 36 971.1
20260504032500 61 39 9.0 20.0 0.00 0.00 0.00 33 970.4
20260504031958 61 16 9.0 18.0 0.00 0.00 0.00 32 970.2
20260504031501 62 62 10.0 23.0 0.00 0.00 0.00 32 970.0
20260504030957 63 0 6.0 29.0 0.00 0.00 0.00 31 969.6
20260504030459 64 0 16.0 29.0 0.00 0.00 0.00 30 969.2
20260504025959 65 61 5.0 11.0 0.00 0.00 0.00 30 968.9
20260504025501 65 51 5.0 10.0 0.00 0.00 0.00 29 968.9
20260504025006 66 48 5.0 10.0 0.00 0.00 0.00 29 968.6
20260504024959 65 59 6.0 10.0 0.00 0.00 0.00 29 968.8
20260504023957 66 13 4.0 11.0 0.00 0.00 0.00 29 968.5
20260504023500 67 82 6.0 12.0 0.00 0.00 0.00 28 968.5
20260504022958 67 47 5.0 12.0 0.00 0.00 0.00 28 968.3
20260504022459 67 39 5.0 14.0 0.00 0.00 0.00 28 968.2
20260504021956 67 0 6.0 16.0 0.00 0.00 0.00 28 968.1
20260504021500 67 78 7.0 16.0 0.00 0.00 0.00 28 967.9
20260504020957 68 63 5.0 14.0 0.00 0.00 0.00 28 967.8
20260504020500 68 68 6.0 17.0 0.00 0.00 0.00 28 967.6
20260504015957 68 52 5.0 17.0 0.00 0.00 0.00 28 967.6
20260504015459 68 80 9.0 17.0 0.00 0.00 0.00 27 967.5
20260504014957 69 48 8.0 24.0 0.00 0.00 0.00 27 967.5
20260504014458 69 56 8.0 24.0 0.00 0.00 0.00 26 967.5
20260504013957 70 71 6.0 18.0 0.00 0.00 0.00 27 967.4
20260504013505 71 59 7.0 19.0 0.00 0.00 0.00 26 967.1